Weather reports worldwide

Advertisment
Stonyhurst, United Kingdom (99060): temperature & dewpoint: 06.12.2019 10:00:00 - 12.12.2019 10:00:00 (GMT)Stonyhurst, United Kingdom (99060): precipitation: 06.12.2019 10:00:00 - 12.12.2019 10:00:00 (GMT)
Date & Time tt [°C] td [°C] rr [mm]
12.12.2019 10:00:00 - - -
12.12.2019 09:00:00 - - -
12.12.2019 08:00:00 - - -
12.12.2019 07:00:00 - - -
12.12.2019 06:00:00 - - -
12.12.2019 05:00:00 - - -
12.12.2019 04:00:00 - - -
12.12.2019 03:00:00 - - -
12.12.2019 02:00:00 - - -
12.12.2019 01:00:00 - - -
12.12.2019 00:00:00 - - -
11.12.2019 23:00:00 - - -
11.12.2019 22:00:00 - - -
11.12.2019 21:00:00 - - -
11.12.2019 20:00:00 - - -
11.12.2019 19:00:00 - - -
11.12.2019 18:00:00 - - -
11.12.2019 17:00:00 - - -
11.12.2019 16:00:00 - - -
11.12.2019 15:00:00 - - -
11.12.2019 14:00:00 - - -
11.12.2019 13:00:00 - - -
11.12.2019 12:00:00 - - -
11.12.2019 11:00:00 - - -
11.12.2019 10:00:00 - - -
11.12.2019 09:00:00 - - -
11.12.2019 08:00:00 - - -
11.12.2019 07:00:00 - - -
11.12.2019 06:00:00 - - -
11.12.2019 05:00:00 - - -
11.12.2019 04:00:00 - - -
11.12.2019 03:00:00 - - -
11.12.2019 02:00:00 - - -
11.12.2019 01:00:00 - - -
11.12.2019 00:00:00 - - -
10.12.2019 23:00:00 - - -
10.12.2019 22:00:00 - - -
10.12.2019 21:00:00 - - -
10.12.2019 20:00:00 - - -
10.12.2019 19:00:00 - - -
10.12.2019 18:00:00 - - -
10.12.2019 17:00:00 - - -
10.12.2019 16:00:00 - - -
10.12.2019 15:00:00 - - -
10.12.2019 14:00:00 - - -
10.12.2019 13:00:00 - - -
10.12.2019 12:00:00 - - -
10.12.2019 11:00:00 - - -
10.12.2019 10:00:00 - - -
10.12.2019 09:00:00 - - -
10.12.2019 08:00:00 - - -
10.12.2019 07:00:00 - - -
10.12.2019 06:00:00 - - -
10.12.2019 05:00:00 - - -
10.12.2019 04:00:00 - - -
10.12.2019 03:00:00 - - -
10.12.2019 02:00:00 3,1 1,3 0,0
10.12.2019 01:00:00 2,8 1,1 0,0
10.12.2019 00:00:00 2,3 1,1 0,0
09.12.2019 23:00:00 2,2 1,2 0,0
09.12.2019 22:00:00 1,4 0,5 0,0
09.12.2019 21:00:00 1,2 0,1 0,0
09.12.2019 20:00:00 1,5 -0,2 0,0
09.12.2019 19:00:00 2,5 0,3 0,0
09.12.2019 18:00:00 4,0 0,4 0,0
09.12.2019 17:00:00 5,7 0,9 0,0
09.12.2019 16:00:00 5,1 0,6 0,0
09.12.2019 15:00:00 6,0 1,1 0,0
09.12.2019 14:00:00 6,9 1,1 0,0
09.12.2019 13:00:00 6,9 -0,8 0,0
09.12.2019 12:00:00 6,7 -0,7 0,0
09.12.2019 11:00:00 6,4 0,1 0,0
09.12.2019 10:00:00 6,2 1,0 0,0
09.12.2019 09:00:00 5,2 1,6 0,0
09.12.2019 08:00:00 6,4 0,3 0,0
09.12.2019 07:00:00 6,2 1,1 0,0
09.12.2019 06:00:00 6,6 1,6 0,0
09.12.2019 05:00:00 6,8 2,1 0,0
09.12.2019 04:00:00 6,7 3,4 0,0
09.12.2019 03:00:00 6,8 4,5 0,2
09.12.2019 02:00:00 6,7 5,5 1,6
09.12.2019 01:00:00 6,1 5,0 1,4
09.12.2019 00:00:00 6,2 5,4 0,0
08.12.2019 23:00:00 6,1 5,0 1,6
08.12.2019 22:00:00 5,9 4,6 1,2
08.12.2019 21:00:00 6,5 3,2 0,0
08.12.2019 20:00:00 6,9 2,8 0,0
08.12.2019 19:00:00 6,6 3,1 0,0
08.12.2019 18:00:00 6,7 2,6 0,2
08.12.2019 17:00:00 6,8 2,6 0,0
08.12.2019 16:00:00 6,6 2,9 0,2
08.12.2019 15:00:00 6,6 3,7 0,2
08.12.2019 14:00:00 6,6 4,0 0,2
08.12.2019 13:00:00 7,1 3,5 0,0
08.12.2019 12:00:00 7,5 3,4 0,0
08.12.2019 11:00:00 7,5 4,0 0,0
08.12.2019 10:00:00 7,6 3,1 0,2
08.12.2019 09:00:00 6,9 4,2 0,0
08.12.2019 08:00:00 7,6 4,2 0,0
08.12.2019 07:00:00 7,6 4,9 0,0
08.12.2019 06:00:00 7,3 5,3 0,4
08.12.2019 05:00:00 7,6 4,7 0,8
08.12.2019 04:00:00 9,2 7,3 0,0
08.12.2019 03:00:00 9,9 8,2 0,4
08.12.2019 02:00:00 9,8 9,6 5,4
08.12.2019 01:00:00 9,7 9,3 2,2
08.12.2019 00:00:00 9,1 8,2 3,6
07.12.2019 23:00:00 8,9 7,8 2,2
07.12.2019 22:00:00 8,9 7,4 0,2
07.12.2019 21:00:00 9,1 7,2 0,0
07.12.2019 20:00:00 9,0 7,1 0,0
07.12.2019 19:00:00 8,9 7,2 0,0
07.12.2019 18:00:00 9,3 7,5 0,0
07.12.2019 17:00:00 8,8 7,7 0,2
07.12.2019 16:00:00 8,1 7,7 0,4
07.12.2019 15:00:00 7,9 7,6 1,4
07.12.2019 14:00:00 8,2 7,1 0,0
07.12.2019 13:00:00 8,5 6,6 0,0
07.12.2019 12:00:00 7,8 6,6 0,2
07.12.2019 11:00:00 7,7 6,8 0,0
07.12.2019 10:00:00 8,1 6,9 0,0
07.12.2019 09:00:00 7,9 6,9 0,0
07.12.2019 08:00:00 7,7 6,6 0,0
07.12.2019 07:00:00 7,9 6,7 0,0
07.12.2019 06:00:00 7,6 6,4 0,0
07.12.2019 05:00:00 8,0 6,8 0,0
07.12.2019 04:00:00 8,3 7,1 0,0
07.12.2019 03:00:00 8,1 7,1 0,4
07.12.2019 02:00:00 8,5 5,8 0,0
07.12.2019 01:00:00 8,5 6,4 0,0
07.12.2019 00:00:00 8,4 6,5 0,0
06.12.2019 23:00:00 8,1 6,3 0,0
06.12.2019 22:00:00 8,6 6,5 0,0
06.12.2019 21:00:00 8,3 6,7 0,0
06.12.2019 20:00:00 8,6 6,9 0,0
06.12.2019 19:00:00 8,6 7,2 0,0
06.12.2019 18:00:00 8,5 7,2 0,0
06.12.2019 17:00:00 8,3 7,2 0,0
06.12.2019 16:00:00 8,7 7,5 0,2
06.12.2019 15:00:00 8,8 8,1 0,8
06.12.2019 14:00:00 9,0 7,9 0,2
06.12.2019 13:00:00 9,2 8,2 1,0
06.12.2019 12:00:00 9,4 8,1 0,0
06.12.2019 11:00:00 10,0 9,5 4,6
06.12.2019 10:00:00 10,0 9,4 3,2

tt = temperature
td = dewpoint
rr = precipitation

Next stations